Location: Newark
(29.9790°N, 31.1340°E)
Time: 09:25:56
(UTC+00:00)

A-11 Canister half - Pass Details

Date: 27 January 2020
Orbit: 1524 x 1684 km, 47.3° (Epoch: 25 February)

Event Time Altitude Azimuth Distance (km) Brightness Sun altitude
Rises 15:32:20 0° 259° (WSW) 4,666 14.0 -1.7°
Reaches altitude 10° 15:35:37 10° 266° (W) 3,688 12.7 -2.4°
Maximum altitude 15:44:15 41° 335° (NNW) 2,096 9.8 -4.2°
Drops below altitude 10° 15:53:07 10° 43° (NE) 3,769 10.5 -6.0°
Enters shadow 15:55:19 - 49° (NE) 4,414 10.8 -6.5°
